Time,TemperatureF,DewpointF,PressureIn,WindDirection,WindDirectionDegrees,WindSpeedMPH,WindSpeedGustMPH,Humidity,HourlyPrecipIn,Conditions,Clouds,dailyrainin,SoftwareType,DateUTC
2013-08-06 00:02:00,57.0,53.0,30.08,North,0,0.0,2.0,87,0.00,,,0.00,,2013-08-06 04:02:00,
2013-08-06 00:22:00,57.0,53.0,30.08,North,0,0.0,2.0,87,0.00,,,0.00,,2013-08-06 04:22:00,
2013-08-06 00:44:00,57.0,54.0,30.08,North,0,0.0,0.0,89,0.00,,,0.00,,2013-08-06 04:44:00,
2013-08-06 00:53:00,57.0,54.0,30.08,North,0,0.0,1.0,90,0.00,,,0.00,,2013-08-06 04:53:00,
2013-08-06 01:02:00,57.0,54.0,30.08,North,0,0.0,1.0,90,0.00,,,0.00,,2013-08-06 05:02:00,
2013-08-06 01:11:00,56.0,53.0,30.08,North,0,0.0,1.0,90,0.00,,,0.00,,2013-08-06 05:11:00,
2013-08-06 01:22:00,56.0,53.0,30.08,North,0,0.0,1.0,91,0.00,,,0.00,,2013-08-06 05:22:00,
2013-08-06 01:32:00,56.0,53.0,30.08,North,0,0.0,1.0,91,0.00,,,0.00,,2013-08-06 05:32:00,
2013-08-06 01:43:00,56.0,53.0,30.08,North,0,0.0,1.0,91,0.00,,,0.00,,2013-08-06 05:43:00,
2013-08-06 01:53:00,56.0,53.0,30.07,North,0,0.0,1.0,91,0.00,,,0.00,,2013-08-06 05:53:00,
2013-08-06 02:02:00,56.0,52.0,30.07,North,0,0.0,3.0,87,0.00,,,0.00,,2013-08-06 06:02:00,
2013-08-06 02:12:00,56.0,52.0,30.07,North,0,0.0,0.0,85,0.00,,,0.00,,2013-08-06 06:12:00,
2013-08-06 02:22:00,56.0,52.0,30.07,North,0,0.0,0.0,85,0.00,,,0.00,,2013-08-06 06:22:00,
2013-08-06 02:32:00,56.0,52.0,30.07,North,0,0.0,0.0,85,0.00,,,0.00,,2013-08-06 06:32:00,
2013-08-06 02:43:00,56.0,51.0,30.07,North,0,0.0,1.0,83,0.00,,,0.00,,2013-08-06 06:43:00,
2013-08-06 02:52:00,56.0,51.0,30.07,North,0,0.0,1.0,83,0.00,,,0.00,,2013-08-06 06:52:00,
2013-08-06 03:01:00,56.0,51.0,30.07,North,0,0.0,1.0,84,0.00,,,0.00,,2013-08-06 07:01:00,
2013-08-06 03:12:00,56.0,51.0,30.06,North,0,0.0,0.0,84,0.00,,,0.00,,2013-08-06 07:12:00,
2013-08-06 03:22:00,56.0,51.0,30.06,North,0,0.0,0.0,84,0.00,,,0.00,,2013-08-06 07:22:00,
2013-08-06 03:32:00,55.0,51.0,30.06,North,0,0.0,1.0,87,0.00,,,0.00,,2013-08-06 07:32:00,
2013-08-06 03:43:00,55.0,51.0,30.06,North,0,0.0,1.0,87,0.00,,,0.00,,2013-08-06 07:43:00,
2013-08-06 03:53:00,54.0,51.0,30.06,North,0,0.0,1.0,89,0.00,,,0.00,,2013-08-06 07:53:00,
2013-08-06 04:02:00,54.0,51.0,30.06,North,0,0.0,0.0,89,0.00,,,0.00,,2013-08-06 08:02:00,
2013-08-06 04:11:00,54.0,51.0,30.06,North,0,0.0,0.0,89,0.00,,,0.00,,2013-08-06 08:11:00,
2013-08-06 04:22:00,54.0,51.0,30.05,North,0,0.0,2.0,89,0.00,,,0.00,,2013-08-06 08:22:00,
2013-08-06 04:33:00,54.0,51.0,30.05,North,0,0.0,0.0,89,0.00,,,0.00,,2013-08-06 08:33:00,
2013-08-06 04:43:00,54.0,51.0,30.05,North,0,0.0,1.0,88,0.00,,,0.00,,2013-08-06 08:43:00,
2013-08-06 05:01:00,54.0,51.0,30.05,North,0,0.0,1.0,88,0.00,,,0.00,,2013-08-06 09:01:00,
2013-08-06 05:11:00,54.0,50.0,30.05,North,0,0.0,1.0,87,0.00,,,0.00,,2013-08-06 09:11:00,
2013-08-06 05:22:00,54.0,50.0,30.05,North,0,0.0,1.0,87,0.00,,,0.00,,2013-08-06 09:22:00,
2013-08-06 05:32:00,54.0,50.0,30.05,North,0,0.0,1.0,87,0.00,,,0.00,,2013-08-06 09:32:00,
2013-08-06 05:43:00,54.0,50.0,30.05,North,0,0.0,0.0,87,0.00,,,0.00,,2013-08-06 09:43:00,
2013-08-06 05:52:00,55.0,52.0,30.05,North,0,0.0,0.0,88,0.00,,,0.00,,2013-08-06 09:52:00,
2013-08-06 06:01:00,54.0,50.0,30.06,North,0,0.0,0.0,87,0.00,,,0.00,,2013-08-06 10:01:00,
2013-08-06 06:12:00,54.0,50.0,30.06,North,0,0.0,0.0,87,0.00,,,0.00,,2013-08-06 10:12:00,
2013-08-06 06:22:00,54.0,51.0,30.05,North,0,0.0,0.0,88,0.00,,,0.00,,2013-08-06 10:22:00,
2013-08-06 06:32:00,54.0,51.0,30.06,North,0,0.0,0.0,88,0.00,,,0.00,,2013-08-06 10:32:00,
2013-08-06 06:43:00,54.0,51.0,30.05,North,0,0.0,0.0,89,0.00,,,0.00,,2013-08-06 10:43:00,
2013-08-06 06:53:00,54.0,51.0,30.05,North,0,0.0,0.0,89,0.00,,,0.00,,2013-08-06 10:53:00,
2013-08-06 07:02:00,54.0,51.0,30.05,North,0,0.0,0.0,90,0.00,,,0.00,,2013-08-06 11:02:00,
2013-08-06 07:22:00,55.0,52.0,30.06,North,0,0.0,1.0,89,0.00,,,0.00,,2013-08-06 11:22:00,
2013-08-06 07:32:00,55.0,53.0,30.05,North,0,0.0,1.0,92,0.00,,,0.00,,2013-08-06 11:32:00,
2013-08-06 07:53:00,55.0,52.0,30.06,North,0,0.0,1.0,91,0.00,,,0.00,,2013-08-06 11:53:00,
2013-08-06 08:02:00,56.0,53.0,30.07,North,0,0.0,1.0,90,0.00,,,0.00,,2013-08-06 12:02:00,
2013-08-06 08:11:00,56.0,53.0,30.06,North,0,0.0,4.0,89,0.00,,,0.00,,2013-08-06 12:11:00,
2013-08-06 08:22:00,57.0,54.0,30.06,North,0,0.0,0.0,90,0.00,,,0.00,,2013-08-06 12:22:00,
2013-08-06 08:32:00,57.0,54.0,30.06,North,0,0.0,0.0,90,0.00,,,0.00,,2013-08-06 12:32:00,
2013-08-06 08:43:00,57.0,54.0,30.06,North,0,0.0,0.0,90,0.00,,,0.00,,2013-08-06 12:43:00,
2013-08-06 08:52:00,57.0,54.0,30.08,North,0,0.0,1.0,89,0.00,,,0.00,,2013-08-06 12:52:00,
2013-08-06 09:02:00,59.0,54.0,30.07,North,0,0.0,2.0,84,0.00,,,0.00,,2013-08-06 13:02:00,
2013-08-06 09:11:00,60.0,55.0,30.07,East,89,1.0,4.0,85,0.00,,,0.00,,2013-08-06 13:11:00,
2013-08-06 09:22:00,61.0,55.0,30.07,North,0,0.0,3.0,82,0.00,,,0.00,,2013-08-06 13:22:00,
2013-08-06 09:32:00,63.0,56.0,30.07,East,90,1.0,6.0,77,0.00,,,0.00,,2013-08-06 13:32:00,
2013-08-06 10:11:00,66.0,57.0,30.06,SSW,193,1.0,4.0,74,0.00,,,0.00,,2013-08-06 14:11:00,
2013-08-06 10:22:00,66.0,57.0,30.06,SSW,193,1.0,4.0,74,0.00,,,0.00,,2013-08-06 14:22:00,
2013-08-06 10:32:00,66.0,58.0,30.07,SW,228,3.0,5.0,75,0.00,,,0.00,,2013-08-06 14:32:00,
2013-08-06 10:42:00,66.0,57.0,30.07,North,0,0.0,5.0,74,0.00,,,0.00,,2013-08-06 14:42:00,
2013-08-06 11:02:00,68.0,58.0,30.08,North,0,0.0,4.0,70,0.00,,,0.00,,2013-08-06 15:02:00,
2013-08-06 11:12:00,68.0,58.0,30.07,East,79,1.0,4.0,70,0.00,,,0.00,,2013-08-06 15:12:00,
2013-08-06 11:23:00,70.0,59.0,30.08,North,0,0.0,4.0,68,0.00,,,0.00,,2013-08-06 15:23:00,
2013-08-06 11:33:00,70.0,59.0,30.08,NW,305,1.0,4.0,69,0.00,,,0.00,,2013-08-06 15:33:00,
2013-08-06 11:52:00,69.0,58.0,30.07,East,88,3.0,6.0,68,0.00,,,0.00,,2013-08-06 15:52:00,
2013-08-06 12:02:00,69.0,58.0,30.07,East,79,3.0,6.0,69,0.00,,,0.00,,2013-08-06 16:02:00,
2013-08-06 12:11:00,69.0,58.0,30.07,North,0,0.0,5.0,69,0.00,,,0.00,,2013-08-06 16:11:00,
2013-08-06 12:22:00,70.0,59.0,30.07,North,0,0.0,6.0,68,0.00,,,0.00,,2013-08-06 16:22:00,
2013-08-06 12:32:00,70.0,59.0,30.06,ESE,118,4.0,8.0,68,0.00,,,0.00,,2013-08-06 16:32:00,
2013-08-06 12:43:00,70.0,59.0,30.07,East,92,5.0,8.0,68,0.00,,,0.00,,2013-08-06 16:43:00,
2013-08-06 12:52:00,71.0,59.0,30.06,East,86,3.0,8.0,67,0.00,,,0.00,,2013-08-06 16:52:00,
2013-08-06 13:02:00,71.0,59.0,30.06,East,86,3.0,8.0,67,0.00,,,0.00,,2013-08-06 17:02:00,
2013-08-06 13:21:00,71.0,59.0,30.06,ESE,105,5.0,9.0,67,0.00,,,0.00,,2013-08-06 17:21:00,
2013-08-06 13:32:00,71.0,58.0,30.06,East,93,3.0,9.0,64,0.00,,,0.00,,2013-08-06 17:32:00,
2013-08-06 13:44:00,71.0,58.0,30.06,ESE,107,5.0,9.0,64,0.00,,,0.00,,2013-08-06 17:44:00,
2013-08-06 13:52:00,71.0,58.0,30.06,East,101,4.0,8.0,64,0.00,,,0.00,,2013-08-06 17:52:00,
2013-08-06 14:02:00,73.0,58.0,30.06,SE,128,3.0,8.0,60,0.00,,,0.00,,2013-08-06 18:02:00,
2013-08-06 14:11:00,72.0,57.0,30.06,ESE,121,3.0,8.0,60,0.00,,,0.00,,2013-08-06 18:11:00,
2013-08-06 14:22:00,72.0,57.0,30.06,ESE,121,3.0,8.0,60,0.00,,,0.00,,2013-08-06 18:22:00,
2013-08-06 14:32:00,71.0,58.0,30.05,ESE,107,1.0,6.0,63,0.00,,,0.00,,2013-08-06 18:32:00,
2013-08-06 14:43:00,72.0,58.0,30.05,East,93,4.0,8.0,61,0.00,,,0.00,,2013-08-06 18:43:00,
2013-08-06 14:52:00,73.0,58.0,30.06,SE,124,1.0,8.0,60,0.00,,,0.00,,2013-08-06 18:52:00,
2013-08-06 15:01:00,73.0,58.0,30.05,SSE,149,1.0,7.0,59,0.00,,,0.00,,2013-08-06 19:01:00,
2013-08-06 15:11:00,73.0,58.0,30.05,SSE,149,1.0,7.0,59,0.00,,,0.00,,2013-08-06 19:11:00,
2013-08-06 15:42:00,73.0,61.0,30.05,ESE,109,3.0,11.0,65,0.00,,,0.00,,2013-08-06 19:42:00,
2013-08-06 16:01:00,72.0,60.0,30.06,ESE,105,5.0,10.0,65,0.00,,,0.00,,2013-08-06 20:01:00,
2013-08-06 16:32:00,71.0,61.0,30.06,ESE,106,3.0,9.0,70,0.00,,,0.00,,2013-08-06 20:32:00,
2013-08-06 16:52:00,72.0,62.0,30.05,ESE,102,4.0,9.0,70,0.00,,,0.00,,2013-08-06 20:52:00,
2013-08-06 17:12:00,71.0,61.0,30.05,ESE,109,4.0,11.0,71,0.00,,,0.00,,2013-08-06 21:12:00,
2013-08-06 17:32:00,71.0,62.0,30.05,ESE,106,5.0,10.0,72,0.00,,,0.00,,2013-08-06 21:32:00,
2013-08-06 17:43:00,71.0,61.0,30.04,ESE,117,4.0,10.0,71,0.00,,,0.00,,2013-08-06 21:43:00,
2013-08-06 18:01:00,70.0,61.0,30.04,ESE,108,4.0,10.0,72,0.00,,,0.00,,2013-08-06 22:01:00,
2013-08-06 18:43:00,69.0,60.0,30.07,ESE,109,4.0,12.0,73,0.00,,,0.00,,2013-08-06 22:43:00,
2013-08-06 19:02:00,69.0,61.0,30.07,East,92,2.0,9.0,75,0.00,,,0.00,,2013-08-06 23:02:00,
2013-08-06 19:11:00,69.0,61.0,30.07,ESE,110,4.0,7.0,75,0.00,,,0.00,,2013-08-06 23:11:00,
2013-08-06 19:43:00,68.0,59.0,30.05,ESE,110,2.0,5.0,74,0.00,,,0.00,,2013-08-06 23:43:00,
2013-08-06 19:52:00,68.0,59.0,30.05,North,0,0.0,8.0,74,0.00,,,0.00,,2013-08-06 23:52:00,
2013-08-06 20:01:00,68.0,60.0,30.05,ESE,102,1.0,5.0,75,0.00,,,0.00,,2013-08-07 00:01:00,
2013-08-06 20:11:00,68.0,60.0,30.05,ESE,112,1.0,4.0,76,0.00,,,0.00,,2013-08-07 00:11:00,
2013-08-06 20:32:00,66.0,59.0,30.05,North,0,0.0,4.0,79,0.00,,,0.00,,2013-08-07 00:32:00,
2013-08-06 20:43:00,66.0,60.0,30.05,East,101,1.0,4.0,80,0.00,,,0.00,,2013-08-07 00:43:00,
2013-08-06 21:01:00,66.0,60.0,30.05,North,0,0.0,6.0,80,0.00,,,0.00,,2013-08-07 01:01:00,
2013-08-06 21:11:00,65.0,59.0,30.05,ESE,112,2.0,4.0,81,0.00,,,0.00,,2013-08-07 01:11:00,
2013-08-06 21:43:00,65.0,59.0,30.06,ESE,103,2.0,7.0,82,0.00,,,0.00,,2013-08-07 01:43:00,
2013-08-06 22:33:00,64.0,59.0,30.06,SE,145,1.0,6.0,85,0.00,,,0.00,,2013-08-07 02:33:00,
2013-08-06 22:53:00,64.0,60.0,30.06,North,0,0.0,8.0,88,0.00,,,0.00,,2013-08-07 02:53:00,
2013-08-06 23:12:00,63.0,60.0,30.06,ESE,111,3.0,7.0,89,0.00,,,0.00,,2013-08-07 03:12:00,
2013-08-06 23:32:00,63.0,60.0,30.06,ESE,123,1.0,5.0,90,0.00,,,0.00,,2013-08-07 03:32:00,
2013-08-06 23:43:00,63.0,61.0,30.07,North,0,0.0,4.0,92,0.00,,,0.00,,2013-08-07 03:43:00,